Weather observations for the past three days for
Mobile, Mobile Downtown Airport
Imperial (Metric)
Date Time (cdt) Wind (mph) Vis. (mi.) Weather Sky Cond. Temperature (ºF) Relative Humidity Wind Chill (°F) Heat Index (°F) Pressure Precipitation (in)
Air Dwpt 6 hour altimeter (in) sea level (mb) 1 hr 3 hr 6 hr
Max. Min.
20 14:53 SE 5 10.00 Partly Cloudy FEW023 SCT065 82.9 73.9 74% 89 30.06 1017.8 0.02
20 13:53 NE 6 10.00 Thunderstorm SCT015CB 82.9 73.9 74% 89 30.07 1018.3
20 12:53 Calm 10.00 Mostly Cloudy FEW017 SCT035 BKN090 81 75 86 77 82% 87 30.1 1019.1 0.39
20 11:53 S 8 10.00 Mostly Cloudy FEW015 SCT035 BKN090 78.1 73 85% 81 30.08 1018.5 0.03
20 10:53 S 8 5.00 Rain SCT013 SCT033 BKN075 78.1 73 85% 81 30.09 1018.9 0.25
20 09:53 NW 9 5.00 Rain SCT025 BKN033 80.1 73.9 82% 85 30.09 1019.0 0.11 0.11
20 08:53 Calm 10.00 Thunderstorm FEW026CB SCT034 84.9 75.9 75% 94 30.08 1018.4
20 07:53 Calm 10.00 Fair CLR 82.9 75.9 79% 91 30.06 1017.8
20 06:53 Calm 10.00 A Few Clouds FEW023 FEW031 78.1 75 82 78.1 90% 81 30.03 1017.0 0.15
20 05:53 Calm 10.00 Light Rain FEW120 78.1 73.9 87% 81 30.02 1016.7
20 04:53 W 3 3.00 Light Rain BKN025 79 73 82% 82 30.02 1016.6 0.13
20 03:53 NW 3 10.00 Partly Cloudy FEW050 SCT070 79 73.9 85% 83 30.02 1016.4 0.02
20 02:53 Calm 10.00 Partly Cloudy SCT110 78.1 73.9 87% 81 30.01 1016.3
20 01:53 Vrbl 6 10.00 Thunderstorm in Vicinity SCT024 BKN055 OVC095 82 75 79% 89 30.02 1016.7 0.02
20 00:52 Vrbl 7 3.00 Light Rain BKN015 BKN021 OVC040 79 72 82 78.1 79% 82 30.03 1017.0 0.64 0.64
19 23:53 NW 6 10.00 Mostly Cloudy SCT024 SCT035 BKN049 78.1 72 82% 80 30.05 1017.6
19 22:53 NW 3 10.00 A Few Clouds FEW022 FEW029 78.1 73.9 87% 81 30.05 1017.5
19 21:53 NE 6 10.00 Fair CLR 80.1 72 76% 84 30.04 1017.3
19 20:53 Calm 10.00 Mostly Cloudy SCT023 SCT040 BKN049 79 71.1 77% 82 30.03 1016.8
19 19:53 NW 3 10.00 Partly Cloudy SCT020 79 72 79% 82 30.03 1016.7
19 18:53 Calm 10.00 Partly Cloudy SCT020 82 70 87.1 80.1 67% 86 30 1015.9
19 17:53 NW 7 10.00 Mostly Cloudy FEW013 BKN028 BKN033 80.1 69.1 69% 83 30.01 1016.1
19 16:53 SW 6 10.00 Partly Cloudy FEW017 SCT027 84.9 71.1 63% 90 30.03 1016.9
19 15:53 Vrbl 3 10.00 Partly Cloudy SCT018 86 73 65% 93 30.03 1016.9
19 14:53 Vrbl 6 G 16 10.00 Partly Cloudy SCT016 84.9 71.1 63% 90 30.04 1017.3
19 13:53 S 8 10.00 A Few Clouds FEW015 82.9 72 70% 88 30.03 1016.7
19 12:53 SE 13 10.00 Partly Cloudy FEW013 SCT095 SCT110 81 71.1 82 77 72% 85 30.05 1017.6 0.02 0.18
19 11:53 S 12 7.00 Light Rain BKN013 BKN024 OVC110 80.1 75 85% 85 30.1 1019.0 0.11
19 10:53 S 9 7.00 Rain BKN013 BKN046 OVC100 79 72 79% 82 30.11 1019.4 0.02
19 09:53 S 7 10.00 Partly Cloudy FEW009 SCT100 81 73.9 79% 86 30.08 1018.6 0.03
19 08:53 NE 5 10.00 Partly Cloudy FEW007 SCT100 81 73.9 79% 86 30.07 1018.1
19 07:53 Calm 10.00 Partly Cloudy FEW005 FEW012 SCT100 77 73 88% 78 30.05 1017.6 0.03
19 06:53 Calm 5.00 Rain Fog/Mist SCT020 BKN120 77 73 78.1 75.9 88% 78 30.05 1017.6 0.1 0.14
19 05:53 Calm 5.00 Thunderstorm Rain SCT030CB BKN100 77 72 85% 78 30.04 1017.3 0.04
19 04:53 N 6 10.00 A Few Clouds FEW020 77 72 85% 78 30.03 1016.7
19 03:53 Vrbl 7 10.00 A Few Clouds FEW015 77 72 85% 78 30.03 1016.8
19 02:53 Calm 10.00 Fair CLR 77 72 85% 78 30.03 1016.9
19 01:53 N 3 10.00 Fair CLR 78.1 72 82% 80 30.04 1017.0
19 00:53 N 3 10.00 A Few Clouds FEW025 FEW033 78.1 71.1 80.1 77 79% 80 30.04 1017.0 0.01
18 23:53 E 5 10.00 Fair CLR 80.1 72 76% 84 30.03 1016.7
18 22:53 Calm 10.00 Fair CLR 78.1 72 82% 80 30.02 1016.6
18 21:53 N 6 10.00 Fair CLR 77 71.1 82% 79 30.02 1016.6 0.01
18 20:53 Calm 10.00 Fair CLR 77 72 85% 78 30.03 1016.8 0.01
18 19:53 NE 5 10.00 Light Rain FEW021 SCT027 79 70 74% 82 30.02 1016.4
18 18:53 NW 9 G 20 7.00 Light Rain SCT027 BKN055 BKN070 80.1 69.1 90 80.1 69% 83 30.04 1017.3
18 17:53 S 8 10.00 Thunderstorm SCT033CB 86 72 63% 92 30 1016.0
18 16:53 S 13 10.00 Partly Cloudy SCT035 89.1 72 57% 96 30 1015.9
18 14:53 S 9 10.00 Partly Cloudy SCT035 90 71.1 54% 96 30.02 1016.5
18 13:53 S 9 10.00 Partly Cloudy SCT035 89.1 69.1 52% 94 30.03 1016.9
18 12:53 S 9 10.00 Partly Cloudy SCT030 SCT050 88 73.9 91 77 63% 97 30.05 1017.6
18 11:53 E 7 10.00 Partly Cloudy FEW025 SCT050 89.1 73.9 61% 98 30.06 1017.9
18 10:53 E 6 10.00 Partly Cloudy FEW023 SCT040 87.1 75 67% 97 30.08 1018.4
18 09:53 E 6 10.00 Partly Cloudy SCT018 84.9 73.9 70% 92 30.08 1018.4
18 08:53 N 5 10.00 Fair CLR 86 75 70% 95 30.07 1018.3
18 07:53 NE 6 10.00 Fair CLR 81 75 82% 87 30.07 1018.1
18 06:53 Calm 10.00 A Few Clouds FEW020 77 73 79 75.9 88% 78 30.06 1017.9
18 05:53 NW 5 10.00 A Few Clouds FEW018 77 73 88% 78 30.06 1017.8
18 04:53 N 5 10.00 Fair CLR 77 72 85% 78 30.04 1017.2
18 03:53 Calm 10.00 A Few Clouds FEW026 77 72 85% 78 30.02 1016.7
18 02:53 Calm 10.00 A Few Clouds FEW026 75.9 73 91% 76 30.01 1016.2
18 01:53 Calm 10.00 Fair CLR 77 73 88% 78 30.04 1017.2
18 00:53 NW 6 10.00 Fair CLR 78.1 73 82.9 77 85% 81 30.04 1017.1
17 23:53 SW 5 10.00 Fair CLR 78.1 73 85% 81 30.03 1016.7
17 22:53 Calm 10.00 Fair CLR 78.1 73 85% 81 30.02 1016.5
17 21:53 W 3 10.00 Fair CLR 80.1 75 85% 85 30.03 1016.8
17 20:53 S 3 10.00 A Few Clouds FEW018 80.1 73.9 82% 85 30.04 1017.0
17 19:53 SE 7 10.00 Fair CLR 82 72 72% 87 30.05 1017.4
17 18:53 Calm 10.00 Fair CLR 80.1 73.9 95 75 82% 85 30.05 1017.5 1
17 17:53 SW 3 10.00 Light Rain FEW070 SCT095 BKN110 79 73.9 85% 83 30.03 1016.9
17 16:53 Calm 10.00 Fair CLR 79 73.9 85% 83 30.04 1017.1
17 15:53 N 6 10.00 Light Rain FEW044 SCT055 SCT100 78.1 72 82% 80 30.07 1018.2 0.23 1
Date Time (cdt) Wind (mph) Vis. (mi.) Weather Sky Cond. Air Dwpt Max. Min. Relative Humidity Wind Chill (°F) Heat Index (°F) altimeter (in) sea level (mb) 1 hr 3 hr 6 hr
6 hour
Temperature (ºF) Pressure Precipitation (in)